Date String (YYYY-MM-DD hh:mm:ss) UTC,Instrument flags,Ambient pressure (hPa),Sample flow (lpm),Bypass flow (lpm),Sample temperature (°C),Ambient temperature (°C),ASC tube jacket temperature (°C),LED temperature (°C),Box temperature (°C),Sample RH (%),Span deviation,Mass concentration (μg/m³),Mass concentration (μg/m³),Mass concentration (μg/m³)
DateTimeUTC,F1_M11,P_M11,Q1_M11,Q2_M11,T1_M11,T2_M11,T3_M11,T4_M11,T5_M11,U1_M11,ZSPAN_M11,X2_M11,X0_M11,X1_M11
2023-02-15 17:00:00,,0822.2,5.00,0.00,22.8,21.0,00.0,31.7,24.3,07.9,0000.0,0002.58,0003.95,0002.09
2023-02-15 17:01:00,,0822.2,5.02,0.00,22.7,20.8,00.0,31.7,24.3,08.0,0000.0,0002.55,0004.22,0002.07
2023-02-15 17:02:00,,0822.2,5.06,0.00,22.7,21.4,00.0,31.6,24.4,07.9,0000.0,0002.50,0005.01,0002.02
2023-02-15 17:03:00,,0822.3,4.96,0.00,22.8,22.4,00.0,31.6,24.7,07.8,0000.0,0002.43,0005.77,0001.97
2023-02-15 17:04:00,,0822.3,4.94,0.00,22.9,23.2,00.0,31.6,24.9,07.7,0000.0,0002.34,0005.49,0001.91
2023-02-15 17:05:00,,0822.4,5.01,0.00,22.9,22.9,00.0,31.7,24.8,07.6,0000.0,0002.30,0005.96,0001.85
2023-02-15 17:06:00,,0822.3,4.98,0.00,22.9,22.3,00.0,31.7,24.7,07.6,0000.0,0002.21,0007.14,0001.81
2023-02-15 17:07:00,,0822.4,5.03,0.00,22.9,21.8,00.0,31.7,24.6,07.6,0000.0,0002.15,0007.03,0001.77
2023-02-15 17:08:00,,0822.3,5.01,0.00,22.8,21.5,00.0,31.7,24.5,07.7,0000.0,0002.09,0006.96,0001.73
2023-02-15 17:09:00,,0822.3,5.02,0.00,22.8,21.2,00.0,31.7,24.4,07.7,0000.0,0002.01,0006.88,0001.67
2023-02-15 17:10:00,,0822.4,5.01,0.00,22.7,21.0,00.0,31.7,24.3,07.8,0000.0,0001.96,0006.80,0001.62
2023-02-15 17:11:00,,0822.4,5.00,0.00,22.7,20.9,00.0,31.7,24.3,07.8,0000.0,0001.91,0006.65,0001.58
2023-02-15 17:12:00,,0822.4,5.00,0.00,22.7,21.9,00.0,31.6,24.5,07.8,0000.0,0001.87,0006.30,0001.53
2023-02-15 17:13:00,,0822.4,4.98,0.00,22.9,22.9,00.0,31.6,24.8,07.7,0000.0,0001.83,0005.31,0001.50
2023-02-15 17:14:00,,0822.4,4.98,0.00,23.0,23.3,00.0,31.6,24.9,07.6,0000.0,0001.85,0004.59,0001.50
2023-02-15 17:15:00,,0822.4,5.00,0.00,23.0,22.7,00.0,31.7,24.8,07.6,0000.0,0001.87,0004.69,0001.50
2023-02-15 17:16:00,,0822.4,5.00,0.00,22.9,22.2,00.0,31.7,24.7,07.5,0000.0,0001.86,0005.67,0001.50
2023-02-15 17:17:00,,0822.4,4.98,0.00,22.9,21.8,00.0,31.7,24.6,07.5,0000.0,0001.86,0004.77,0001.50
2023-02-15 17:18:00,,0822.4,5.00,0.00,22.8,21.4,00.0,31.7,24.5,07.6,0000.0,0001.85,0004.80,0001.50
2023-02-15 17:19:00,,0822.4,5.02,0.00,22.8,21.2,00.0,31.7,24.4,07.7,0000.0,0001.91,0004.89,0001.51
2023-02-15 17:20:00,,0822.4,4.96,0.00,22.7,21.0,00.0,31.7,24.4,07.7,0000.0,0001.94,0005.23,0001.51
2023-02-15 17:21:00,,0822.4,4.98,0.00,22.8,21.9,00.0,31.7,24.6,07.8,0000.0,0001.96,0006.52,0001.49
2023-02-15 17:22:00,,0822.4,5.05,0.00,22.9,23.0,00.0,31.6,24.8,07.8,0000.0,0001.95,0006.84,0001.49
2023-02-15 17:23:00,,0822.4,4.98,0.00,23.0,23.4,00.0,31.7,24.9,07.8,0000.0,0001.95,0006.80,0001.50
2023-02-15 17:24:00,,0822.4,5.01,0.00,23.0,22.8,00.0,31.7,24.9,07.8,0000.0,0001.96,0006.89,0001.51
2023-02-15 17:25:00,,0822.3,5.02,0.00,23.0,22.3,00.0,31.7,24.8,07.7,0000.0,0001.94,0006.79,0001.52
2023-02-15 17:26:00,,0822.4,5.00,0.00,22.9,21.8,00.0,31.8,24.6,07.7,0000.0,0001.95,0006.78,0001.51
2023-02-15 17:27:00,,0822.3,5.00,0.00,22.9,21.5,00.0,31.8,24.5,07.7,0000.0,0001.94,0005.70,0001.52
2023-02-15 17:28:00,,0822.3,5.01,0.00,22.8,21.2,00.0,31.8,24.5,07.7,0000.0,0001.95,0004.91,0001.51
2023-02-15 17:29:00,,0822.3,5.01,0.00,22.8,20.9,00.0,31.7,24.4,07.7,0000.0,0001.94,0004.78,0001.51
2023-02-15 17:30:00,,0822.3,4.98,0.00,22.8,21.1,00.0,31.7,24.4,07.7,0000.0,0001.90,0004.70,0001.51
2023-02-15 17:31:00,,0822.3,4.95,0.00,22.8,22.2,00.0,31.7,24.7,07.7,0000.0,0001.83,0004.48,0001.50
2023-02-15 17:32:00,,0822.3,4.96,0.00,23.0,23.2,00.0,31.7,24.9,07.7,0000.0,0001.79,0003.86,0001.50
2023-02-15 17:33:00,,0822.3,5.02,0.00,23.0,23.1,00.0,31.7,24.9,07.7,0000.0,0001.83,0003.84,0001.52
2023-02-15 17:34:00,,0822.2,5.00,0.00,23.0,22.5,00.0,31.7,24.8,07.7,0000.0,0001.81,0003.89,0001.51
2023-02-15 17:35:00,,0822.3,5.01,0.00,23.0,21.9,00.0,31.8,24.7,07.6,0000.0,0001.80,0003.89,0001.49
2023-02-15 17:36:00,,0822.3,4.98,0.00,22.9,21.5,00.0,31.8,24.6,07.6,0000.0,0001.82,0004.02,0001.49
2023-02-15 17:37:00,,0822.3,5.01,0.00,22.8,21.2,00.0,31.7,24.4,07.5,0000.0,0001.80,0005.51,0001.49
2023-02-15 17:38:00,,0822.3,4.99,0.00,22.8,21.3,00.0,31.7,24.4,07.5,0000.0,0001.80,0006.01,0001.48
2023-02-15 17:39:00,,0822.4,4.95,0.00,22.9,22.4,00.0,31.7,24.7,07.4,0000.0,0001.76,0006.64,0001.47
2023-02-15 17:40:00,,0822.4,4.93,0.00,23.0,23.4,00.0,31.7,24.9,07.4,0000.0,0001.75,0006.66,0001.46
2023-02-15 17:41:00,,0822.4,4.97,0.00,23.1,23.3,00.0,31.7,25.0,07.4,0000.0,0001.73,0006.63,0001.45
2023-02-15 17:42:00,,0822.3,5.01,0.00,23.0,22.6,00.0,31.8,24.9,07.4,0000.0,0001.71,0006.78,0001.43
2023-02-15 17:43:00,,0822.3,5.02,0.00,23.0,22.1,00.0,31.8,24.7,07.4,0000.0,0001.70,0006.61,0001.43
2023-02-15 17:44:00,,0822.3,4.99,0.00,23.0,21.7,00.0,31.8,24.6,07.4,0000.0,0001.70,0006.00,0001.41
2023-02-15 17:45:00,,0822.3,5.00,0.00,22.9,21.4,00.0,31.8,24.6,07.5,0000.0,0001.72,0005.76,0001.41
2023-02-15 17:46:00,,0822.3,5.00,0.00,22.9,21.2,00.0,31.8,24.5,07.6,0000.0,0001.74,0005.96,0001.42
2023-02-15 17:47:00,,0822.3,5.03,0.00,22.8,21.3,00.0,31.8,24.5,07.6,0000.0,0001.76,0006.19,0001.41
2023-02-15 17:48:00,,0822.4,4.99,0.00,22.9,22.4,00.0,31.7,24.8,07.7,0000.0,0001.79,0004.88,0001.39
2023-02-15 17:49:00,,0822.4,4.99,0.00,23.0,23.4,00.0,31.7,25.0,07.7,0000.0,0001.77,0004.42,0001.39
2023-02-15 17:50:00,,0822.4,4.95,0.00,23.1,23.4,00.0,31.8,25.0,07.7,0000.0,0001.78,0003.47,0001.39
2023-02-15 17:51:00,,0822.4,5.01,0.00,23.1,22.8,00.0,31.8,24.9,07.7,0000.0,0001.80,0003.63,0001.40
2023-02-15 17:52:00,,0822.4,4.97,0.00,23.1,22.2,00.0,31.8,24.8,07.7,0000.0,0001.83,0003.89,0001.39
2023-02-15 17:53:00,,0822.4,4.99,0.00,23.0,21.8,00.0,31.9,24.7,07.8,0000.0,0001.87,0003.76,0001.40
2023-02-15 17:54:00,,0822.4,5.01,0.00,23.0,21.5,00.0,31.9,24.6,07.8,0000.0,0001.91,0003.72,0001.42
2023-02-15 17:55:00,,0822.4,4.99,0.00,22.9,21.2,00.0,31.8,24.5,07.9,0000.0,0001.91,0004.85,0001.42
2023-02-15 17:56:00,,0822.3,5.00,0.00,22.9,21.0,00.0,31.8,24.5,07.8,0000.0,0001.89,0005.12,0001.43
2023-02-15 17:57:00,,0822.4,4.98,0.00,22.9,21.6,00.0,31.8,24.6,07.8,0000.0,0001.90,0005.20,0001.43
2023-02-15 17:58:00,,0822.4,4.99,0.00,23.0,22.7,00.0,31.7,24.8,07.6,0000.0,0001.90,0005.01,0001.45
2023-02-15 17:59:00,,0822.4,4.96,0.00,23.1,23.4,00.0,31.8,25.0,07.5,0000.0,0001.87,0004.85,0001.48
